Location: Topeka
(39.0480°N, 95.6780°W)
Time: 02:35:40
(UTC-05:00)

ISS - Visible Passes

Search period start: 26 April 2018 00:00
Search period end: 06 May 2018 00:00
Orbit: 403 x 406 km, 51.6° (Epoch: 26 April)

Date Brightness Start Highest point End Pass type
(mag) Time Alt. Az. Time Alt. Az. Time Alt. Az.
30 Apr -1.2 05:19:25 10° SSE 05:21:22 15° SE 05:23:19 10° E visible
02 May -2.8 05:10:58 18° SSW 05:12:57 37° SE 05:16:00 10° ENE visible
03 May -1.7 04:20:47 19° SE 04:20:47 19° SE 04:23:09 10° E visible
04 May -3.9 05:03:09 30° WSW 05:04:37 81° NW 05:07:53 10° NE visible
05 May -2.9 04:12:48 43° ESE 04:12:48 43° ESE 04:15:27 10° ENE visible
05 May -2.0 05:46:18 10° W 05:48:55 22° NNW 05:51:33 10° NNE visible
